Tracking 31011 objects as of 13-Jul-2025
HD Live streaming from Space Station
objects crossing your sky now

FREGAT R/B

Track FREGAT R/B now!


NORAD ID: 54224
Int'l Code: 2022-145B
Perigee: 1,149.4 km
Apogee: 38,968.6 km
Inclination: 63.9 °
Period: 712.7 minutes
Semi major axis: 26430 km
RCS: Unknown
Launch date: November 2, 2022
Source: Commonwealth of Independent States (former USSR) (CIS)
Launch site: PLESETSK MISSILE AND SPACE COMPLEX (PKMTR)

Note: This is a ROCKET BODY
Your satellite tracking list
Your tracking list is empty




NASA's NSSDC Master Catalog

Two Line Element Set (TLE):
1 54224U 22145B   25192.80003954 -.00001442  00000-0  00000-0 0  9991
2 54224  63.8961 324.7532 7154597 266.4222  17.1135  2.02049129 19850
Source of the keplerian elements: AFSPC